Погода в Новопокровке

Россия / Тамбовская область     52°08′05″N   40°52′42″E
темп.,
°C
ветер,
м/с
пор.,
м/с
влажн.,
%
обл.,
%
осадки,
мм/ч
давл.,
гПа
погр.,
м
26 февраля, пт
пт2600:00+1зсз3899100 0.0 1016212
03:00+1зсз5999100 0.1 1016259
06:00+1зюз36100100 0.2 1015129
09:00+2з511100100 1.0 1014256
12:00+3з613100100 0.2 1012329
15:00+3з816100100 0.3 1011465
18:00+2з71599100 0.5 1009423
21:00+2з71599100 0.6 1008438
27 февраля, сб
сб2700:00+1з61293100 0.0 1008375
03:00+1з61294100 0.1 1008471
06:00+1з61292100 0.0 1006517
09:00+1з71292100 0.1 1006544
12:00+1з71399100 0.1 1005574
15:00+1зсз71398100 0.1 1005718
18:000сз7129793 0.2 1006753
21:00−7ссз6129080 0.3 1009527
28 февраля, вс
вс2800:00−9ссз5109235 0.0 1011523
03:00−11ссз599150 0.0 1013427
06:00−12ссз489144 0.0 1014408
09:00−11ссз589055 0.0 1016413
12:00−10ссз478986 0.0 1017463
15:00−9ссз478892 0.0 1017512
18:00−10ссз379391 0.0 1018235
21:00−11ссз369560 0.0 1020159
1 марта, пн
пн100:00−12с23950 0.0 102157
03:00−12ссз22940 0.0 102340
06:00−12ссз239518 0.0 102449
09:00−11с239433 0.0 1026157
12:00−9с228645 0.0 1027318
15:00−8ссз228566 0.0 1028391
18:00−10сз129345 0.0 102921
21:00−10з229432 0.0 103021
2 марта, вт
вт200:00−10зюз339517 0.0 102950
03:00−8зюз489646 0.0 1028181
06:00−6зюз51195100 0.0 1025276
09:00−4зюз71394100 0.1 1022433
12:00−1з71394100 0.2 1019694
15:000з81497100 0.3 1016668
18:000сз71297100 0.4 1015614
21:00−1сз6139499 0.8 1016561